Time,TemperatureF,DewpointF,PressureIn,WindDirection,WindDirectionDegrees,WindSpeedMPH,WindSpeedGustMPH,Humidity,HourlyPrecipIn,Conditions,Clouds,dailyrainin,SoftwareType,DateUTC
2014-10-23 00:04:00,48.2,43.0,29.95,North,355,5.0,13.0,82,0.00,,,0.00,weatherlink.com 1.10,2014-10-23 04:04:00,
2014-10-23 00:19:00,48.1,43.0,29.94,NW,325,13.0,18.0,82,0.00,,,0.00,weatherlink.com 1.10,2014-10-23 04:19:00,
2014-10-23 00:34:00,48.2,43.0,29.94,NW,309,10.0,15.0,82,0.00,,,0.00,weatherlink.com 1.10,2014-10-23 04:34:00,
2014-10-23 00:49:00,48.2,43.0,29.93,NNW,330,9.0,17.0,81,0.00,,,0.00,weatherlink.com 1.10,2014-10-23 04:49:00,
2014-10-23 01:04:00,48.2,43.0,29.93,NNW,331,6.0,16.0,82,0.00,,,0.00,weatherlink.com 1.10,2014-10-23 05:04:00,
2014-10-23 01:19:00,48.3,43.0,29.93,NW,324,11.0,17.0,82,0.00,,,0.00,weatherlink.com 1.10,2014-10-23 05:19:00,
2014-10-23 01:34:00,48.2,43.0,29.93,WNW,295,10.0,20.0,82,0.00,,,0.00,weatherlink.com 1.10,2014-10-23 05:34:00,
2014-10-23 01:49:00,48.2,43.0,29.93,WNW,298,7.0,16.0,82,0.00,,,0.00,weatherlink.com 1.10,2014-10-23 05:49:00,
2014-10-23 02:04:00,48.2,43.0,29.92,NW,325,11.0,15.0,82,0.00,,,0.00,weatherlink.com 1.10,2014-10-23 06:04:00,
2014-10-23 02:19:00,48.0,43.0,29.92,NW,310,11.0,17.0,83,0.00,,,0.00,weatherlink.com 1.10,2014-10-23 06:19:00,
2014-10-23 02:35:00,48.5,43.0,29.92,WNW,286,8.0,17.0,82,0.00,,,0.00,weatherlink.com 1.10,2014-10-23 06:35:00,
2014-10-23 02:50:00,48.6,43.0,29.91,NW,309,10.0,21.0,82,0.00,,,0.00,weatherlink.com 1.10,2014-10-23 06:50:00,
2014-10-23 03:05:00,48.8,43.0,29.91,WNW,302,10.0,17.0,81,0.00,,,0.00,weatherlink.com 1.10,2014-10-23 07:05:00,
2014-10-23 03:20:00,49.0,43.0,29.90,NNW,342,12.0,18.0,81,0.00,,,0.00,weatherlink.com 1.10,2014-10-23 07:20:00,
2014-10-23 03:35:00,49.1,44.0,29.90,NNW,339,13.0,20.0,81,0.00,,,0.00,weatherlink.com 1.10,2014-10-23 07:35:00,
2014-10-23 03:50:00,49.3,44.0,29.89,NW,325,9.0,20.0,81,0.00,,,0.00,weatherlink.com 1.10,2014-10-23 07:50:00,
2014-10-23 04:05:00,49.5,44.0,29.90,NNW,331,12.0,19.0,80,0.00,,,0.00,weatherlink.com 1.10,2014-10-23 08:05:00,
2014-10-23 04:20:00,49.5,44.0,29.89,North,355,10.0,22.0,81,0.00,,,0.00,weatherlink.com 1.10,2014-10-23 08:20:00,
2014-10-23 04:35:00,49.5,44.0,29.89,WNW,294,11.0,17.0,80,0.00,,,0.00,weatherlink.com 1.10,2014-10-23 08:35:00,
2014-10-23 04:50:00,49.5,44.0,29.89,NNW,346,10.0,21.0,81,0.00,,,0.00,weatherlink.com 1.10,2014-10-23 08:50:00,
2014-10-23 05:05:00,49.5,44.0,29.89,West,280,9.0,25.0,81,0.00,,,0.00,weatherlink.com 1.10,2014-10-23 09:05:00,
2014-10-23 05:20:00,49.5,44.0,29.89,NW,316,3.0,22.0,81,0.00,,,0.00,weatherlink.com 1.10,2014-10-23 09:20:00,
2014-10-23 05:35:00,49.6,44.0,29.90,NNW,338,11.0,19.0,81,0.00,,,0.00,weatherlink.com 1.10,2014-10-23 09:35:00,
2014-10-23 05:50:00,49.7,44.0,29.90,WNW,286,8.0,20.0,81,0.00,,,0.00,weatherlink.com 1.10,2014-10-23 09:50:00,
2014-10-23 06:05:00,49.8,44.0,29.90,WNW,295,14.0,18.0,80,0.00,,,0.00,weatherlink.com 1.10,2014-10-23 10:05:00,
2014-10-23 06:20:00,49.9,44.0,29.91,NW,309,14.0,18.0,81,0.00,,,0.00,weatherlink.com 1.10,2014-10-23 10:20:00,
2014-10-23 06:35:00,49.8,44.0,29.91,WNW,300,3.0,13.0,81,0.00,,,0.00,weatherlink.com 1.10,2014-10-23 10:35:00,
2014-10-23 06:50:00,49.9,44.0,29.91,WNW,297,10.0,13.0,80,0.00,,,0.00,weatherlink.com 1.10,2014-10-23 10:50:00,
2014-10-23 07:05:00,49.9,44.0,29.90,North,9,9.0,18.0,80,0.00,,,0.00,weatherlink.com 1.10,2014-10-23 11:05:00,
2014-10-23 07:35:00,49.9,44.0,29.90,WNW,299,13.0,20.0,79,0.00,,,0.00,weatherlink.com 1.10,2014-10-23 11:35:00,
2014-10-23 07:50:00,49.8,44.0,29.90,NNW,330,15.0,22.0,80,0.00,,,0.00,weatherlink.com 1.10,2014-10-23 11:50:00,
2014-10-23 08:05:00,49.5,44.0,29.90,NNW,329,14.0,22.0,80,0.00,,,0.00,weatherlink.com 1.10,2014-10-23 12:05:00,
2014-10-23 08:20:00,49.9,44.0,29.90,NNW,338,15.0,18.0,79,0.00,,,0.00,weatherlink.com 1.10,2014-10-23 12:20:00,
2014-10-23 08:35:00,50.2,44.0,29.90,NNW,336,5.0,17.0,79,0.00,,,0.00,weatherlink.com 1.10,2014-10-23 12:35:00,
2014-10-23 08:50:00,50.5,44.0,29.91,West,279,13.0,21.0,78,0.00,,,0.00,weatherlink.com 1.10,2014-10-23 12:50:00,
2014-10-23 09:05:00,50.9,44.0,29.91,NW,307,15.0,23.0,77,0.00,,,0.00,weatherlink.com 1.10,2014-10-23 13:05:00,
2014-10-23 09:20:00,50.8,44.0,29.91,WNW,303,11.0,20.0,77,0.00,,,0.00,weatherlink.com 1.10,2014-10-23 13:20:00,
2014-10-23 09:35:00,50.9,44.0,29.91,NW,315,16.0,21.0,77,0.00,,,0.00,weatherlink.com 1.10,2014-10-23 13:35:00,
2014-10-23 09:50:00,51.1,44.0,29.92,WNW,300,11.0,22.0,78,0.00,,,0.00,weatherlink.com 1.10,2014-10-23 13:50:00,
2014-10-23 10:05:00,51.5,45.0,29.91,WNW,303,15.0,21.0,77,0.00,,,0.00,weatherlink.com 1.10,2014-10-23 14:05:00,
2014-10-23 10:20:00,51.9,45.0,29.91,NNW,331,17.0,25.0,76,0.00,,,0.00,weatherlink.com 1.10,2014-10-23 14:20:00,
2014-10-23 10:35:00,52.5,45.0,29.91,NW,311,17.0,26.0,75,0.00,,,0.00,weatherlink.com 1.10,2014-10-23 14:35:00,
2014-10-23 10:50:00,53.0,45.0,29.91,NW,326,18.0,25.0,74,0.00,,,0.00,weatherlink.com 1.10,2014-10-23 14:50:00,
2014-10-23 11:05:00,53.3,45.0,29.91,NNW,333,19.0,28.0,74,0.00,,,0.00,weatherlink.com 1.10,2014-10-23 15:05:00,
2014-10-23 11:20:00,54.1,46.0,29.92,WNW,302,14.0,24.0,75,0.00,,,0.00,weatherlink.com 1.10,2014-10-23 15:20:00,
2014-10-23 11:35:00,53.6,46.0,29.92,WNW,290,11.0,22.0,74,0.00,,,0.00,weatherlink.com 1.10,2014-10-23 15:35:00,
2014-10-23 11:50:00,53.7,46.0,29.92,NW,306,11.0,18.0,75,0.00,,,0.00,weatherlink.com 1.10,2014-10-23 15:50:00,
2014-10-23 12:05:00,53.6,46.0,29.91,NW,325,14.0,20.0,74,0.00,,,0.00,weatherlink.com 1.10,2014-10-23 16:05:00,
2014-10-23 12:20:00,53.9,46.0,29.91,NNW,327,8.0,18.0,74,0.00,,,0.00,weatherlink.com 1.10,2014-10-23 16:20:00,
2014-10-23 12:35:00,54.3,46.0,29.90,NNW,343,12.0,19.0,74,0.00,,,0.00,weatherlink.com 1.10,2014-10-23 16:35:00,
2014-10-23 12:50:00,54.9,47.0,29.89,WNW,296,8.0,20.0,74,0.00,,,0.00,weatherlink.com 1.10,2014-10-23 16:50:00,
2014-10-23 13:05:00,55.1,46.0,29.89,NW,305,10.0,19.0,72,0.00,,,0.00,weatherlink.com 1.10,2014-10-23 17:05:00,
2014-10-23 13:21:00,55.3,47.0,29.89,NNW,334,10.0,22.0,73,0.00,,,0.00,weatherlink.com 1.10,2014-10-23 17:21:00,
2014-10-23 13:36:00,55.7,47.0,29.88,NW,311,16.0,18.0,73,0.00,,,0.00,weatherlink.com 1.10,2014-10-23 17:36:00,